Weather in Takhtamygda

Russia / Amur Oblast     54°06′31″N   123°36′37″E
temp.,
°C
wind,
m/s
gust,
m/s
humid.,
%
clouds,
%
prec.,
mm/h
press.,
hPa
HPBL,
m
7 may, fri
fri700:00+1nw119120 0.0 100413
03:000nnw11945 0.0 100414
06:000n12915 0.0 100543
09:00+6nne35605 0.0 10031072
12:00+8nne4548100 0.0 10021690
15:00+9nne444688 0.2 10011742
18:00+9ne355045 0.0 10021521
21:00+3nne228482 0.3 100422
8 may, sat
sat800:00+3n2784100 0.0 1005322
03:00+2n3895100 0.1 1005570
06:00+1nne2499100 2.3 1005178
09:00+4nne257996 2.6 1005857
12:00+8nne4651100 0.2 10041954
15:00+9nne4544100 0.4 10031982
18:00+9nne464765 0.1 10041718
21:00+3n227898 0.2 100615
9 may, sun
sun900:00+2n2284100 0.0 100628
03:00+2n2686100 0.0 1007215
06:00+2n2789100 0.1 1007476
09:00+5nne4668100 0.2 10071163
12:00+7nne3459100 0.3 10071436
15:00+9ne3454100 0.5 10071627
18:00+8ne345495 0.2 10081309
21:00+4ne1178100 0.3 101010
10 may, mon
mon1000:00+2nne119170 0.0 101211
03:00+1n119598 0.0 101314
06:00+2nnw129290 0.0 101472
09:00+7nnw2268100 0.0 1013886
12:00+10nnw225684 0.1 10131247
15:00+10n2248100 0.3 10121408
18:00+10n2252100 0.0 10121148
21:00+6nw117388 0.0 101310
11 may, tue
tue1100:00+4n118283 0.0 101410
03:00+3nne1189100 0.0 101316
06:00+4ne1184100 0.0 101361
09:00+10e126068 0.0 1011725
12:00+11se2254100 0.5 10101361
15:00+12se2452100 1.1 10081509
18:00+10se1262100 0.6 100880
21:00+7ene1178100 0.6 100911